Weather History for Oshkosh, WI

Change the Weather History Date:

Saturday, April 6, 2013

  Actual Average Record
Temperature  
Mean Temperature 40 °F -  
Max Temperature 53 °F 49 °F 77 °F (1991)
Min Temperature 28 °F 30 °F 10 °F (1982)
Degree Days  
Heating Degree Days 24    
Moisture  
Dew Point 33 °F    
Average Humidity 81    
Maximum Humidity 93    
Minimum Humidity 61    
Precipitation  
Precipitation 0.15 in - - ()
Sea Level Pressure  
Sea Level Pressure 29.89 in    
Wind  
Wind Speed 11 mph (SE)    
Max Wind Speed 16 mph    
Max Gust Speed 24 mph    
Visibility 7 miles    
Events Rain , Snow    
Averages and records for this station are not official NWS values.
T = Trace of Precipitation, MM = Missing Value Source: NWS Daily Summary

Daily Weather History Graph

Daily Weather History Graph

Search for Another Location

Airport:

Trip Planner

Search our weather history database for the weather conditions in past years. The results will help you decide how hot, cold, wet, or windy it might be!

Date:

Astronomy

Apr. 06, 2013 Rise Set
Actual Time 6:26 AM CDT 7:27 PM CDT
Civil Twilight 5:56 AM CDT 7:57 PM CDT
Nautical Twilight 5:21 AM CDT 8:32 PM CDT
Astronomical Twilight 4:44 AM CDT 9:09 PM CDT
Moon 4:17 AM CDT (4/6) 3:49 PM CDT (4/6)
Length of Visible Light 14h 00m
Length of Day
13h 01m
Waning Crescent, 15% of the Moon is Illuminated
Apr 6
Waning Crescent
Apr 10
New
Apr 18
First Quarter
Apr 25
Full
May 2
Last Quarter

Hourly Weather History & Observations

Time (CDT) Temp. Windchill Dew Point Humidity Pressure Visibility Wind Dir Wind Speed Gust Speed Precip Events Conditions
12:00 AM 30.2 °F 22.6 °F 28.4 °F 93% 30.16 in 1.0 mi SSE 8.1 mph - 0.01 in Snow Light Snow
12:10 AM 30.2 °F 23.4 °F 28.4 °F 93% 30.16 in 0.8 mi SE 6.9 mph - 0.02 in Snow Light Snow
12:33 AM 30.2 °F 21.3 °F 28.4 °F 93% 30.16 in 1.0 mi SE 10.4 mph - 0.03 in Snow Light Snow
12:49 AM 30.2 °F 21.9 °F 28.4 °F 93% 30.16 in 0.8 mi ESE 9.2 mph - 0.04 in Snow Light Snow
12:53 AM 30.0 °F 20.5 °F 27.0 °F 88% 30.19 in 0.8 mi ESE 11.5 mph - 0.05 in Snow Light Snow
1:35 AM 30.2 °F 21.3 °F 26.6 °F 86% 30.14 in 0.8 mi ESE 10.4 mph - 0.02 in Snow Light Snow
1:53 AM 28.9 °F 19.2 °F 27.0 °F 92% 30.17 in 1.8 mi ESE 11.5 mph - 0.02 in Snow Light Snow
2:01 AM 28.4 °F 18.0 °F 26.6 °F 93% 30.12 in 3.0 mi ESE 12.7 mph - 0.00 in Snow Light Snow
2:11 AM 28.4 °F 16.6 °F 26.6 °F 93% 30.11 in 2.0 mi East 16.1 mph 20.7 mph 0.00 in Snow Light Snow
2:14 AM 28.4 °F 18.0 °F 26.6 °F 93% 30.11 in 1.8 mi East 12.7 mph 20.7 mph 0.00 in Snow Light Snow
2:32 AM 28.4 °F 17.5 °F 26.6 °F 93% 30.09 in 2.0 mi ESE 13.8 mph - 0.00 in Snow Light Snow
2:41 AM 30.2 °F 18.9 °F 26.6 °F 86% 30.08 in 6.0 mi East 16.1 mph - 0.00 in Snow Light Snow
2:53 AM 30.0 °F 19.1 °F 26.1 °F 85% 30.11 in 10.0 mi East 15.0 mph - 0.00 in   Overcast
3:53 AM 30.9 °F 20.7 °F 27.0 °F 85% 30.09 in 10.0 mi ESE 13.8 mph - N/A   Overcast
4:53 AM 30.9 °F 22.2 °F 28.0 °F 89% 30.07 in 10.0 mi ESE 10.4 mph - 0.00 in   Overcast
5:06 AM 30.2 °F 20.8 °F 28.4 °F 93% 30.03 in 10.0 mi ESE 11.5 mph - N/A   Overcast
5:53 AM 32.0 °F 23.0 °F 28.0 °F 85% 30.05 in 10.0 mi ESE 11.5 mph - N/A   Overcast
6:53 AM 33.1 °F 24.4 °F 27.0 °F 78% 30.02 in 10.0 mi SE 11.5 mph - N/A   Mostly Cloudy
7:53 AM 35.1 °F 26.9 °F 26.1 °F 70% 29.99 in 10.0 mi SE 11.5 mph 20.7 mph N/A   Mostly Cloudy
8:53 AM 37.0 °F 29.3 °F 27.0 °F 67% 29.94 in 10.0 mi SE 11.5 mph - N/A   Mostly Cloudy
9:53 AM 39.0 °F 32.8 °F 28.0 °F 65% 29.91 in 10.0 mi SSE 9.2 mph - N/A   Overcast
10:53 AM 39.0 °F 30.3 °F 30.9 °F 73% 29.87 in 5.0 mi SSE 16.1 mph - 0.03 in Rain Light Rain
11:53 AM 43.0 °F 36.0 °F 34.0 °F 71% 29.81 in 10.0 mi SSE 13.8 mph 20.7 mph 0.02 in   Mostly Cloudy
12:53 PM 46.9 °F - 35.1 °F 63% 29.77 in 10.0 mi SSE 10.4 mph - N/A   Mostly Cloudy
1:53 PM 48.9 °F - 36.0 °F 61% 29.72 in 10.0 mi SSE 13.8 mph 24.2 mph N/A   Partly Cloudy
2:53 PM 48.9 °F - 37.0 °F 64% 29.68 in 10.0 mi SE 12.7 mph - N/A   Mostly Cloudy
3:53 PM 48.9 °F - 37.0 °F 64% 29.64 in 9.0 mi ESE 9.2 mph - N/A   Overcast
4:53 PM 48.0 °F - 39.0 °F 71% 29.62 in 5.0 mi SE 9.2 mph - 0.01 in Rain Light Rain
5:53 PM 48.9 °F - 39.0 °F 69% 29.58 in 8.0 mi SSE 6.9 mph - 0.00 in   Overcast
6:53 PM 48.9 °F - 39.9 °F 71% 29.56 in 7.0 mi SSE 9.2 mph - 0.00 in Rain Light Rain
7:53 PM 53.1 °F - 45.0 °F 74% 29.54 in 10.0 mi SSW 13.8 mph - 0.02 in   Overcast
8:53 PM 52.0 °F - 46.0 °F 80% 29.52 in 10.0 mi SSW 12.7 mph - 0.00 in   Overcast
9:53 PM 52.0 °F - 46.0 °F 80% 29.52 in 10.0 mi SSW 9.2 mph - N/A   Overcast
10:13 PM 51.8 °F - 46.4 °F 82% 29.50 in 10.0 mi SSW 11.5 mph - N/A   Overcast
10:53 PM 52.0 °F - 46.9 °F 83% 29.51 in 10.0 mi SW 10.4 mph 17.3 mph 0.00 in Rain Light Rain
11:53 PM 51.1 °F - 46.0 °F 83% 29.51 in 10.0 mi West 9.2 mph 19.6 mph 0.00 in   Overcast